TimeCDT,TemperatureF,Dew PointF,Humidity,Sea Level PressureIn,VisibilityMPH,Wind Direction,Wind SpeedMPH,Gust SpeedMPH,PrecipitationIn,Events,Conditions,WindDirDegrees,DateUTC
12:14 AM,28.4,19.4,69,30.08,10.0,WNW,5.8,-,N/A,,Clear,300,2013-03-24 05:14:00
12:34 AM,28.4,19.4,69,30.08,10.0,WNW,4.6,-,N/A,,Scattered Clouds,300,2013-03-24 05:34:00
12:54 AM,28.4,19.4,69,30.07,10.0,NW,4.6,-,N/A,,Mostly Cloudy,310,2013-03-24 05:54:00
1:13 AM,26.6,19.4,74,30.06,10.0,NW,4.6,-,N/A,,Overcast,310,2013-03-24 06:13:00
1:33 AM,26.6,19.4,74,30.05,10.0,WNW,4.6,-,N/A,,Overcast,300,2013-03-24 06:33:00
1:53 AM,26.6,19.4,74,30.05,10.0,WNW,4.6,-,N/A,,Overcast,300,2013-03-24 06:53:00
2:34 AM,26.6,19.4,74,30.05,10.0,West,5.8,-,N/A,,Overcast,280,2013-03-24 07:34:00
2:53 AM,26.6,19.4,74,30.05,10.0,WNW,5.8,-,N/A,,Overcast,290,2013-03-24 07:53:00
3:13 AM,26.6,21.2,80,30.04,10.0,WNW,4.6,-,N/A,,Overcast,300,2013-03-24 08:13:00
3:34 AM,28.4,21.2,74,30.04,10.0,WNW,3.5,-,N/A,,Mostly Cloudy,300,2013-03-24 08:34:00
3:53 AM,28.4,21.2,74,30.04,10.0,NW,3.5,-,N/A,,Mostly Cloudy,310,2013-03-24 08:53:00
4:13 AM,28.4,21.2,74,30.03,10.0,NW,4.6,-,N/A,,Mostly Cloudy,310,2013-03-24 09:13:00
4:33 AM,28.4,21.2,74,30.03,10.0,NW,3.5,-,N/A,,Scattered Clouds,310,2013-03-24 09:33:00
4:53 AM,28.4,21.2,74,30.02,10.0,WNW,4.6,-,N/A,,Scattered Clouds,290,2013-03-24 09:53:00
5:13 AM,28.4,21.2,74,30.02,10.0,WNW,5.8,-,N/A,,Mostly Cloudy,300,2013-03-24 10:13:00
5:33 AM,28.4,21.2,74,30.02,10.0,WNW,4.6,-,N/A,,Overcast,300,2013-03-24 10:33:00
5:53 AM,28.4,21.2,74,30.02,10.0,WNW,5.8,-,N/A,,Overcast,300,2013-03-24 10:53:00
6:13 AM,28.4,21.2,74,30.02,10.0,WNW,5.8,-,N/A,,Overcast,300,2013-03-24 11:13:00
6:34 AM,28.4,21.2,74,30.02,10.0,WNW,5.8,-,N/A,,Overcast,300,2013-03-24 11:34:00
6:54 AM,28.4,21.2,74,30.01,10.0,NW,6.9,-,N/A,,Overcast,310,2013-03-24 11:54:00
7:14 AM,28.4,21.2,74,30.01,10.0,NW,8.1,-,N/A,,Overcast,310,2013-03-24 12:14:00
7:34 AM,28.4,21.2,74,30.01,7.0,NW,6.9,-,N/A,,Overcast,320,2013-03-24 12:34:00
7:53 AM,28.4,21.2,74,30.01,10.0,NNW,9.2,-,N/A,,Overcast,330,2013-03-24 12:53:00
8:13 AM,28.4,21.2,74,30.01,7.0,NNW,6.9,-,N/A,,Scattered Clouds,340,2013-03-24 13:13:00
8:33 AM,28.4,21.2,74,30.01,7.0,NNW,5.8,-,N/A,,Mostly Cloudy,340,2013-03-24 13:33:00
8:53 AM,30.2,21.2,69,30.00,10.0,North,5.8,-,N/A,,Mostly Cloudy,350,2013-03-24 13:53:00
9:13 AM,30.2,21.2,69,30.00,7.0,North,6.9,-,N/A,,Clear,350,2013-03-24 14:13:00
9:33 AM,30.2,21.2,69,29.99,10.0,North,6.9,-,N/A,,Mostly Cloudy,350,2013-03-24 14:33:00
9:53 AM,32.0,21.2,64,29.99,10.0,North,8.1,-,N/A,,Mostly Cloudy,10,2013-03-24 14:53:00
10:14 AM,33.8,21.2,60,29.98,10.0,North,6.9,-,N/A,,Scattered Clouds,10,2013-03-24 15:14:00
10:33 AM,33.8,21.2,60,29.98,10.0,North,8.1,-,N/A,,Clear,10,2013-03-24 15:33:00
10:53 AM,33.8,21.2,60,29.98,10.0,North,6.9,-,N/A,,Scattered Clouds,360,2013-03-24 15:53:00
11:14 AM,33.8,21.2,60,29.98,10.0,North,8.1,-,N/A,,Scattered Clouds,350,2013-03-24 16:14:00
11:33 AM,35.6,21.2,56,29.98,10.0,NNW,6.9,-,N/A,,Mostly Cloudy,340,2013-03-24 16:33:00
11:54 AM,35.6,19.4,52,29.98,10.0,North,9.2,-,N/A,,Overcast,10,2013-03-24 16:54:00
12:13 PM,35.6,19.4,52,29.98,10.0,NNE,10.4,-,N/A,,Overcast,30,2013-03-24 17:13:00
12:33 PM,35.6,19.4,52,29.98,10.0,North,9.2,-,N/A,,Scattered Clouds,360,2013-03-24 17:33:00
12:53 PM,35.6,21.2,56,29.97,10.0,North,12.7,-,N/A,,Scattered Clouds,360,2013-03-24 17:53:00
1:13 PM,35.6,19.4,52,29.96,10.0,North,12.7,-,N/A,,Mostly Cloudy,10,2013-03-24 18:13:00
1:33 PM,35.6,19.4,52,29.95,10.0,North,11.5,-,N/A,,Mostly Cloudy,360,2013-03-24 18:33:00
1:54 PM,35.6,19.4,52,29.95,10.0,North,11.5,-,N/A,,Mostly Cloudy,10,2013-03-24 18:54:00
2:13 PM,35.6,21.2,56,29.94,10.0,NNE,17.3,20.7,N/A,,Overcast,30,2013-03-24 19:13:00
2:33 PM,35.6,21.2,56,29.94,10.0,North,13.8,-,N/A,,Overcast,10,2013-03-24 19:33:00
2:53 PM,35.6,21.2,56,29.94,10.0,NNE,13.8,21.9,N/A,,Overcast,20,2013-03-24 19:53:00
3:13 PM,35.6,21.2,56,29.93,10.0,NNE,13.8,-,N/A,,Mostly Cloudy,20,2013-03-24 20:13:00
3:34 PM,35.6,21.2,56,29.93,10.0,NNE,16.1,-,N/A,,Scattered Clouds,20,2013-03-24 20:34:00
3:54 PM,35.6,21.2,56,29.93,10.0,North,15.0,-,N/A,,Mostly Cloudy,360,2013-03-24 20:54:00
4:14 PM,35.6,21.2,56,29.93,10.0,NNE,15.0,20.7,N/A,,Overcast,20,2013-03-24 21:14:00
4:33 PM,33.8,21.2,60,29.93,10.0,NNE,16.1,-,N/A,,Overcast,20,2013-03-24 21:33:00
4:53 PM,33.8,21.2,60,29.94,10.0,North,15.0,-,N/A,,Overcast,10,2013-03-24 21:53:00
5:14 PM,33.8,21.2,60,29.94,10.0,North,12.7,-,N/A,,Overcast,10,2013-03-24 22:14:00
5:33 PM,33.8,21.2,60,29.94,10.0,North,15.0,21.9,N/A,,Mostly Cloudy,360,2013-03-24 22:33:00
5:53 PM,33.8,21.2,60,29.94,10.0,North,13.8,18.4,N/A,,Mostly Cloudy,360,2013-03-24 22:53:00
6:13 PM,33.8,21.2,60,29.95,7.0,North,15.0,21.9,N/A,,Overcast,360,2013-03-24 23:13:00
6:33 PM,33.8,21.2,60,29.96,10.0,North,16.1,23.0,N/A,,Overcast,10,2013-03-24 23:33:00
6:53 PM,33.8,21.2,60,29.96,10.0,North,12.7,16.1,N/A,,Overcast,10,2013-03-24 23:53:00
7:13 PM,33.8,21.2,60,29.97,10.0,North,13.8,-,N/A,,Overcast,360,2013-03-25 00:13:00
7:33 PM,33.8,21.2,60,29.97,10.0,North,10.4,-,N/A,,Overcast,360,2013-03-25 00:33:00
7:54 PM,33.8,21.2,60,29.97,10.0,North,9.2,-,N/A,,Overcast,350,2013-03-25 00:54:00
8:13 PM,33.8,21.2,60,29.98,10.0,North,8.1,-,N/A,,Overcast,350,2013-03-25 01:13:00
8:33 PM,33.8,21.2,60,29.98,10.0,NNW,8.1,-,N/A,,Overcast,340,2013-03-25 01:33:00
8:53 PM,33.8,21.2,60,29.98,10.0,North,10.4,-,N/A,,Overcast,350,2013-03-25 01:53:00
9:13 PM,33.8,21.2,60,29.99,10.0,North,10.4,-,N/A,,Overcast,350,2013-03-25 02:13:00
9:33 PM,33.8,21.2,60,29.99,10.0,North,11.5,-,N/A,,Overcast,350,2013-03-25 02:33:00
9:54 PM,33.8,23.0,65,29.99,10.0,North,13.8,-,N/A,,Overcast,350,2013-03-25 02:54:00
10:13 PM,33.8,23.0,65,29.99,10.0,North,16.1,-,N/A,,Overcast,350,2013-03-25 03:13:00
10:34 PM,33.8,23.0,65,29.99,10.0,North,13.8,-,N/A,,Overcast,350,2013-03-25 03:34:00
10:54 PM,33.8,21.2,60,29.99,10.0,North,10.4,-,N/A,,Overcast,360,2013-03-25 03:54:00
11:13 PM,33.8,21.2,60,29.99,10.0,North,15.0,19.6,N/A,,Overcast,10,2013-03-25 04:13:00
11:33 PM,33.8,21.2,60,29.99,10.0,North,15.0,19.6,N/A,,Overcast,360,2013-03-25 04:33:00
11:54 PM,33.8,21.2,60,29.99,10.0,North,13.8,20.7,N/A,,Overcast,360,2013-03-25 04:54:00